User: anonymous   Login
Location: ??????
(55.6130°N, 37.7882°E)
Time: 22:04:39
(UTC+00:00)
Language:

deb Kosmos-1275 - Orbit

View from above orbital plane
View from above orbital plane
View from above satellite
View from above satellite

Ground track
Ground track

The orbit data is extracted from the following two-line orbital elements,

1 13809U 81053HD  24263.01485461  .00025209  00000-0  40220-2 0  9992
2 13809  82.8207 207.3141 0028392 125.8535 234.5318 14.71518721181082
Epoch (UTC): 19 September 2024 00:21:23
Eccentricity: 0.0028392
inclination: 82.8207°
perigee height: 636 km
apogee height: 676 km
right ascension of ascending node: 207.3141°
argument of perigee: 125.8535°
revolutions per day: 14.71518721
mean anomaly at epoch: 234.5318°
orbit number at epoch: 18108

The dashed part of the orbit path shows where the satellite is in the earth's shadow,  

DLR